Regional Weather Roundup
Issued by NWS

Home | Current Version | Previous Version | Graphics & Text | Print | Product List | Glossary On
Versions: 1 2 3 4 5 6 7 8 9 10 11 12 13 14 15 16 17 18 19 20 21 22 23 24 25 26 27 28 29 30 31 32 33 34 35 36 37 38 39 40 41 42 43 44 45 46 47 48 49 50
655
ASUS43 KLOT 290703
RWRIL

ILLINOIS REGIONAL WEATHER ROUNDUP
NATIONAL WEATHER SERVICE CHICAGO/ROMEOVILLE IL
200 AM CDT FRI JUL 29 2016

NOTE: "FAIR" INDICATES FEW OR NO CLOUDS BELOW 12,000 FEET WITH NO
SIGNIFICANT WEATHER AND/OR OBSTRUCTIONS TO VISIBILITY.

* THESE STATIONS ARE NOT UNDER NWS QUALITY CONTROL. THEY ALSO MAY NOT
  REPORT WEATHER SUCH AS PRECIPITATION OR FOG.

ILZ001-002-007-009-015-016-024-290800-
NORTHWEST ILLINOIS

CITY           SKY/WX    TMP DP  RH WIND       PRES   REMARKS
MOLINE         CLEAR     71  66  84 NW6       29.91S
STERLING*      FOG       70  68  93 E6        29.93S VSB 1/2
SAVANNA*       CLOUDY    69  67  93 NE5       29.93S
$$

ILZ003-004-008-010-011-017-018-290800-
NORTH CENTRAL ILLINOIS

CITY           SKY/WX    TMP DP  RH WIND       PRES   REMARKS
ROCKFORD       CLOUDY    69  65  86 N9        29.95S
FREEPORT*      CLOUDY    67  65  94 E8        29.96F
ROCHELLE*      CLOUDY    68  67  98 NE6       29.94S FOG
DE KALB*       FOG       68  68  98 N8        29.94S VSB 1/2
$$

ILZ005-006-012>014-019>023-290800-
NORTHEAST ILLINOIS

CITY           SKY/WX    TMP DP  RH WIND       PRES   REMARKS
CHICAGO-OHARE  CLOUDY    70  68  93 N8        29.92S
CHICAGO-MIDWAY CLOUDY    72  69  90 N8        29.91S FOG
AURORA         CLOUDY    71  69  93 NE8       29.92S FOG
LANSING*       CLEAR     71  69  93 CALM      29.91S FOG
WAUKEGAN       CLOUDY    69  67  93 N6        29.94R
DUPAGE AIRPORT CLOUDY    70  68  93 N7        29.92F FOG
KANKAKEE*      FOG       70  69  96 CALM      29.91S VSB<1/4
WHEELING       CLOUDY    69  68  96 N7        29.94S
MORRIS*          N/A     69  68  97 CALM      29.91R FOG
NORTHERLY ISL    N/A     71  69  93 N7          N/A
$$

LMZ740>746-290800-
SOUTHERN LAKE MICHIGAN

STATION/POSITION SKY/WX   TEMP    WIND        PRES    VSBY  WAVE
                          AIR SEA DIR/SP/G                  HT/PER
                          (F)     (DEG/KT/KT) (MB)    (MI)  (FT/S)
SOUTHERN BUOY              74 75   70/ 10/ 12 1012.8          3/ 6
WILMETTE HARBOR            71 72   10/ 12/ 16   N/A           4/ 4
HARRISON CRIB              71     340/ 12/ 13   N/A
BURNHAM HARBOR             71     340/  4/  9   N/A
CALUMET HARBOR             72      20/  2/  3 1012.2F
BURNS HARBOR               74      CALM  /  7 1013.2F
MICHIGAN CITY              71      90/  3/  3   N/A
MICHIGAN CITY 6N           73 77  120/  4/  6   N/A           2/ 6
ST. JOSEPH                 72 76   50/  6/ 10 1012.7F         1
$$

ILZ025>027-034>036-040-047-049-050-058-095>099-290800-
WEST-CENTRAL ILLINOIS

CITY           SKY/WX    TMP DP  RH WIND       PRES   REMARKS
QUINCY         CLEAR     69  68  96 NW6       29.94F
GALESBURG*     CLEAR     65  64  97 CALM      29.93S
MACOMB*        CLEAR     66  65  97 NW7       29.96S
JACKSONVILLE*  CLEAR     67  65  94 W3        29.93S
PITTSFIELD*    CLEAR     69  66  92 CALM      29.95S
$$

ILZ028>032-037-038-041>044-048-051>054-059>061-290800-
CENTRAL ILLINOIS

CITY           SKY/WX    TMP DP  RH WIND       PRES   REMARKS
PONTIAC        CLEAR     68  68 100 CALM      29.92F FOG
BLOOMINGTON    CLEAR     70  69  97 CALM      29.93S
DECATUR        CLEAR     71  67  87 CALM      29.91S
PEORIA         CLEAR     70  68  93 NW5       29.91F
LACON*         PTCLDY    69  68  95 CALM      29.91S
LINCOLN*       CLEAR     72  70  94 CALM      29.92S
SPRINGFIELD    CLEAR     71  68  90 SW3       29.92F
TAYLORVILLE    CLEAR     70  69  98 MISG      29.92F
$$

ILZ033-039-045-046-055>057-062-063-290800-
EAST-CENTRAL ILLINOIS

CITY           SKY/WX    TMP DP  RH WIND       PRES   REMARKS
CHAMPAIGN      CLEAR     69  67  93 W3        29.91F FOG
MATTOON        CLEAR     69  67  93 S3        29.91S
PARIS*         PTCLDY    69  69 100 CALM      29.92S
$$

ILZ079-100>102-290800-
SOUTHWEST ILLINOIS

CITY           SKY/WX    TMP DP  RH WIND       PRES   REMARKS
ALTON          CLEAR     73  70  90 CALM      29.93S
CAHOKIA*       CLOUDY    78  71  79 N6        29.92R HX  80
SPARTA*        CLOUDY    75  73  93 SW3       29.93S
$$

ILZ064>066-069>071-074>076-080>082-084>086-088>090-092>094-290800-
SOUTH-CENTRAL ILLINOIS

CITY           SKY/WX    TMP DP  RH WIND       PRES   REMARKS
CARBONDALE     CLOUDY    72  70  93 S6        29.91F
CAIRO*         CLOUDY    73  73  99 CALM      29.91F
EFFINGHAM*     CLEAR     69  69 100 CALM      29.93S FOG
MARION         PTCLDY    73  72  94 CALM      29.93S
MT. VERNON     CLEAR     70  66  88 MISG      29.91S
CENTRALIA*     CLEAR     70  70 100 CALM      29.92R FOG
SALEM*         CLEAR     70  69  95 CALM      29.92S FOG
METROPOLIS*    CLOUDY    74  73  95 CALM      29.92F
$$

ILZ067-068-072-073-078-083-087-091-290800-
SOUTHEAST ILLINOIS

CITY           SKY/WX    TMP DP  RH WIND       PRES   REMARKS
LAWRENCEVILLE  CLEAR     69  69 100 CALM      29.90F
FLORA*         MOCLDY    73  72  98 W3        29.91F FOG
FAIRFIELD*     CLEAR     70  70 100 CALM      29.90S FOG
HARRISBURG*    PTCLDY    73  73  99 SW5       29.91F
ROBINSON*      CLEAR     69  68  99 CALM      29.91F
CARMI*         MOCLDY    71  71 100 CALM      29.90F
$$

ABBREVIATIONS USED IN REMARKS
   TC - TEMPERATURE IN CELSIUS
  WCI - WIND CHILL INDEX
   HX - HEAT INDEX
  VSB - VISIBILITY
$$





USA.gov is the U.S. government's official web portal to all federal, state and local government web resources and services.